Theta_e
311 310 310 310 310 310 311 311 311 311 312 312 312 313 313 313 313 313 314 315 313 313 312 313 315 315 316 319 319 317 311 313 315 316 315 317 314 317 317 317 317 317 317 317 317
310 310 310 310 311 311 311 312 312 312 312 312 312 312 312 313 314 314 313 312 312 311 311 312 315 316 317 319 319 315 310 312 314 315 317 316 316 317 316 316 316 315 315 317 317
309 310 310 311 312 312 312 312 311 312 312 312 313 315 316 317 317 315 313 312 312 312 313 315 317 317 317 318 319 316 313 314 317 317 316 316 316 317 316 313 316 316 316 316 316
309 310 311 312 312 312 311 311 313 314 316 318 319 320 320 320 315 313 313 314 312 312 313 314 316 316 316 315 317 317 317 317 318 318 317 315 316 316 316 316 316 316 315 316 316
310 311 312 312 311 311 313 315 318 319 319 319 318 317 317 318 320 319 315 314 313 312 312 314 316 316 315 315 315 314 314 316 316 316 315 315 314 314 315 316 316 315 315 314 314
312 312 311 310 312 315 318 319 318 317 317 316 316 316 314 314 318 318 318 316 313 312 312 313 315 315 315 315 314 314 314 314 315 315 315 313 313 314 316 316 316 315 314 313 314
311 310 311 315 318 318 318 317 316 317 317 318 318 317 315 316 317 317 317 315 312 312 312 314 315 315 315 314 315 314 313 311 312 313 312 313 313 312 316 315 315 315 311 312 313
312 315 317 318 317 316 316 316 317 318 318 319 320 317 316 315 315 315 315 314 313 313 313 314 315 315 315 314 313 312 311 312 312 313 314 313 312 312 316 315 315 313 312 312 311
318 318 317 315 315 316 317 317 318 320 320 321 318 315 315 313 313 313 312 312 312 312 313 313 315 314 314 310 309 310 311 311 312 313 313 313 311 312 315 314 313 312 310 309 308
315 315 315 315 317 318 318 319 321 322 322 320 314 315 315 313 312 311 311 311 311 311 311 312 312 309 307 308 311 311 312 311 312 312 311 311 309 309 313 313 311 309 307 307 306
315 316 316 316 318 320 321 322 322 322 321 320 317 314 318 316 314 312 313 312 312 312 310 312 309 309 308 308 309 311 311 311 310 310 311 311 310 310 310 311 308 305 305 304 303
316 316 316 317 319 322 322 322 323 321 319 320 322 321 321 320 318 315 314 312 312 311 311 310 310 310 310 310 310 311 312 311 310 310 311 310 310 307 305 305 304 304 304 303 302
316 316 318 319 322 322 322 322 321 320 319 319 319 319 319 319 319 317 313 312 311 310 310 311 313 311 312 314 314 312 312 312 313 310 309 308 308 308 306 305 304 303 302 301 301
317 318 319 321 321 322 322 322 321 320 316 318 316 314 316 315 314 313 311 313 312 311 310 311 311 312 312 313 312 313 310 311 311 310 310 307 309 308 307 304 302 301 301 301 301
318 320 319 321 322 322 322 322 320 318 321 314 311 310 310 313 309 309 311 312 312 312 311 314 312 311 312 312 309 311 310 310 310 309 309 308 308 307 306 306 303 301 301 301 301
320 319 320 321 323 322 322 322 320 317 322 312 308 309 308 308 308 308 310 310 310 310 309 310 310 309 310 310 310 308 309 308 305 306 309 307 309 310 308 307 303 301 301 301 300
321 321 322 321 322 323 323 321 321 324 317 313 310 308 308 307 307 308 308 308 309 313 312 312 310 310 310 311 308 308 308 312 312 309 312 311 309 310 306 305 303 301 301 300 300
321 322 323 323 322 322 322 321 322 319 319 313 310 309 310 308 308 308 309 311 309 312 312 316 316 310 309 310 311 308 309 309 307 313 312 310 315 313 303 303 303 302 302 300 300
322 323 322 321 321 321 320 322 323 317 317 315 313 313 312 314 312 308 308 310 311 310 315 313 313 308 308 308 310 312 312 311 312 308 313 311 309 307 303 301 301 301 300 300 300
322 319 320 320 321 320 320 321 319 316 315 316 318 318 317 317 317 310 309 310 313 310 310 312 311 312 310 310 308 312 309 312 310 307 311 309 310 309 306 303 301 299 299 299 300
319 316 316 318 319 316 318 317 316 313 314 314 315 316 315 314 315 313 314 313 310 311 311 312 311 311 310 312 312 308 311 311 310 310 307 305 308 307 306 304 301 299 300 300 301
314 313 315 315 312 312 313 313 312 311 311 311 312 312 312 311 311 310 311 310 311 312 313 311 309 307 311 309 308 308 308 309 313 310 308 309 310 306 305 303 302 301 303 302 300
313 307 311 314 314 311 310 312 310 309 309 309 311 311 310 311 312 309 309 309 310 310 311 310 306 301 304 304 307 309 309 308 307 306 304 311 308 303 303 302 303 303 302 302 300
309 305 307 311 309 311 311 311 311 309 309 310 309 309 309 308 307 308 309 308 308 309 309 309 305 304 306 302 305 305 305 304 304 304 303 307 305 303 302 300 301 301 301 302 299
306 305 306 310 310 309 309 308 310 309 309 309 309 309 309 309 307 307 307 307 305 307 305 305 303 304 305 303 303 302 304 303 303 303 303 303 301 301 299 297 298 298 299 299 297
301 301 303 305 308 308 308 308 308 308 307 307 308 307 306 307 306 304 303 304 304 304 303 302 298 298 294 299 301 301 300 299 300 300 300 300 300 299 298 297 295 295 297 297 296
300 300 301 303 305 307 307 307 306 306 303 305 307 304 305 304 303 301 301 301 301 301 301 301 297 294 297 296 293 293 294 296 296 296 296 295 295 292 294 294 294 294 293 293 292
Wind_Speed
4 4 3 3 3 3 3 4 4 5 5 6 7 8 9 10 11 13 12 3 4 5 4 3 3 2 1 1 1 1 4 1 3 2 3 10 6 6 7 5 5 5 9 14 14
6 6 5 5 5 5 5 6 6 7 7 8 9 9 10 11 12 7 1 3 4 4 4 3 4 2 2 1 1 3 3 6 3 3 2 5 4 13 5 9 21 21 17 14 15
8 8 7 7 7 7 7 7 8 8 9 9 9 10 10 11 11 1 3 3 4 4 4 7 4 2 0 2 4 4 4 4 4 4 4 6 10 4 5 6 20 27 28 23 20
10 10 9 9 9 9 9 9 9 9 9 9 9 9 10 8 3 3 4 3 4 5 5 5 5 4 2 3 5 2 9 11 7 15 8 4 6 9 9 23 25 23 22 19 17
13 12 11 11 11 10 9 9 9 10 10 10 10 10 9 6 9 10 9 8 8 8 8 6 7 6 3 3 2 3 4 8 10 16 16 13 14 11 26 22 18 17 14 11 11
15 14 14 13 11 10 10 10 10 10 10 9 9 9 8 8 9 10 9 9 8 8 8 10 5 4 3 4 2 1 5 11 12 24 19 9 7 1 12 12 14 12 15 12 12
17 15 14 13 12 12 11 10 10 10 9 9 10 10 11 14 11 8 8 7 8 9 9 11 11 6 2 2 4 3 5 8 13 5 4 1 3 7 12 17 17 13 12 15 12
17 16 15 14 13 12 11 10 9 10 10 10 10 10 8 10 9 9 10 8 8 9 9 10 8 6 3 1 4 2 3 3 4 1 0 6 8 9 13 18 18 17 15 6 4
19 18 16 14 12 11 11 10 10 11 11 11 9 7 6 6 8 8 7 5 6 7 7 6 6 3 3 4 4 3 3 5 8 2 1 3 6 11 21 18 23 16 2 5 6
19 18 17 14 11 12 10 11 10 11 12 9 10 4 10 6 6 6 6 6 4 6 6 4 3 3 3 3 5 5 4 4 5 5 4 6 9 12 23 22 10 1 10 11 12
20 18 16 14 12 12 9 8 7 5 14 9 5 4 3 8 8 8 8 9 7 5 4 3 3 7 12 9 3 2 3 6 5 7 2 7 7 14 14 14 5 16 17 17 18
20 19 17 15 14 12 9 7 8 4 7 16 21 20 17 11 6 8 10 10 6 5 6 3 7 10 3 5 4 4 4 7 8 4 1 5 12 5 12 8 13 18 19 19 19
22 20 18 16 14 14 12 11 7 4 3 7 12 8 11 14 7 10 18 8 5 5 7 7 5 7 6 3 4 5 5 4 8 5 3 4 7 2 5 15 19 18 19 19 21
24 22 20 16 14 14 15 12 9 2 1 5 5 4 9 7 4 10 18 7 3 9 7 5 7 7 4 5 6 5 5 5 2 2 3 3 4 6 3 6 10 16 19 19 20
26 24 20 19 10 18 11 12 8 3 5 2 4 6 7 6 9 4 13 6 5 5 6 7 4 4 3 7 7 6 2 0 0 2 2 4 1 7 8 3 4 10 16 17 17
29 26 23 22 21 19 13 14 7 3 8 3 5 6 5 4 4 7 5 5 2 1 2 5 1 4 7 2 3 3 3 6 4 3 1 7 6 5 5 6 6 11 14 15 14
33 30 31 28 31 23 20 14 2 6 1 6 5 5 5 5 3 5 5 5 6 5 5 2 4 2 3 4 2 4 5 3 4 2 5 3 3 6 7 1 16 17 18 14 13
36 33 35 35 33 30 24 4 9 8 6 3 5 5 6 7 5 6 5 3 5 1 3 5 3 6 3 5 6 5 7 5 5 3 4 5 5 4 4 12 21 21 18 14 12
40 42 38 31 27 31 24 7 7 6 5 9 4 4 4 5 5 4 7 5 8 10 8 5 4 1 2 2 4 4 4 3 5 2 2 4 1 2 4 5 13 16 14 12 10
42 38 34 31 29 29 9 10 5 4 4 4 8 5 7 5 6 7 8 4 5 7 3 5 0 4 2 3 3 4 6 3 1 1 5 5 5 5 9 8 7 10 14 13 10
38 15 22 32 29 10 8 4 5 7 5 5 7 5 6 6 7 6 5 1 4 3 5 4 4 2 4 5 8 1 3 2 4 5 5 2 5 3 9 12 12 15 17 16 13
18 4 17 23 5 3 4 6 5 4 6 4 3 5 8 8 6 6 9 6 9 11 8 4 4 4 8 3 1 3 7 6 6 6 4 2 8 1 7 14 20 20 19 18 14
16 6 26 32 7 4 2 3 4 6 6 8 9 5 4 7 3 7 5 1 6 7 9 7 1 2 7 5 1 4 2 2 4 3 5 4 7 1 6 10 16 12 15 18 18
9 3 4 13 6 9 7 6 7 10 5 4 4 5 4 6 4 5 3 0 2 2 5 5 5 7 8 5 3 3 5 4 4 2 3 10 6 6 7 7 7 11 17 20 21
10 6 9 7 10 5 8 7 13 7 7 14 5 9 7 6 5 6 4 2 4 4 2 4 5 4 1 4 3 4 8 8 8 6 8 18 11 18 10 5 13 13 13 17 19
7 6 5 5 18 15 8 9 11 9 8 5 5 8 8 8 7 7 7 4 5 1 2 2 1 3 3 1 4 8 13 5 12 15 14 16 21 16 19 5 5 9 11 16 17
7 6 1 8 6 10 10 12 8 9 2 5 10 6 6 5 7 8 7 7 9 8 7 5 5 3 5 3 3 9 9 17 13 10 8 11 13 2 4 6 9 10 12 13 14
Wind_Direction
233 240 243 251 266 278 288 297 302 306 310 313 315 318 320 321 317 315 311 271 253 257 236 203 191 206 180 116 34 44 60 225 243 29 296 343 3 336 322 287 296 245 280 301 301
242 242 248 254 261 272 283 291 295 299 303 305 308 312 316 321 320 317 350 114 130 132 133 151 166 164 136 162 174 103 118 225 202 162 275 294 276 308 300 306 292 292 303 306 293
247 250 256 262 268 273 278 284 289 294 296 298 303 310 314 322 325 181 147 129 138 150 159 171 168 181 195 187 198 167 194 224 258 273 282 292 293 277 307 299 296 305 314 308 301
249 252 257 265 269 273 278 280 284 288 291 294 296 299 301 311 295 205 197 202 222 256 249 226 210 180 196 222 207 170 249 247 271 288 298 287 292 301 257 277 302 312 316 313 297
253 258 260 260 262 264 267 272 276 280 284 286 287 286 285 266 251 254 242 259 269 251 235 217 198 190 193 232 308 207 277 269 273 288 288 282 267 268 281 297 301 317 356 3 349
257 260 262 260 259 262 266 269 273 279 285 286 285 282 268 243 260 246 251 249 243 224 223 202 190 175 264 247 195 240 298 290 288 281 282 265 282 224 280 305 309 301 341 349 344
255 254 252 255 259 260 261 266 273 277 281 281 278 271 258 263 259 245 245 238 234 229 217 207 215 222 179 309 345 310 316 316 280 277 236 228 315 224 297 298 292 290 348 338 344
245 247 250 250 252 254 260 266 271 275 277 276 274 265 252 255 244 244 246 244 230 226 221 216 218 241 228 287 330 333 36 325 276 360 350 149 259 276 308 297 287 309 341 341 360
245 244 241 242 246 251 257 263 266 270 269 269 263 234 255 239 228 236 234 212 211 216 214 216 213 201 138 92 358 348 224 215 306 307 93 197 255 268 294 291 295 325 23 73 65
238 238 240 239 239 246 255 263 267 266 259 256 237 240 234 218 202 197 191 175 167 163 147 159 148 88 52 105 226 217 218 244 243 270 37 269 251 258 276 292 301 134 112 90 76
235 233 234 233 232 244 251 263 263 247 228 218 212 202 204 206 205 202 203 186 160 162 155 169 111 207 208 200 164 172 216 244 264 259 246 272 279 293 318 277 298 118 102 90 80
234 234 232 227 224 236 240 229 222 219 285 249 247 247 249 231 216 200 184 174 173 188 132 61 224 229 177 174 203 227 239 259 272 266 211 314 294 29 22 31 93 113 105 98 93
232 228 229 225 222 228 233 233 232 220 261 270 238 231 224 222 218 208 186 185 175 181 193 167 216 157 171 199 206 227 201 241 239 339 281 344 296 132 65 78 80 86 94 88 83
227 223 223 220 228 224 225 218 205 236 38 252 213 206 179 167 210 178 185 179 197 205 158 231 237 195 185 228 182 273 204 221 212 95 239 42 283 314 150 83 72 89 94 95 92
224 222 223 211 205 200 213 194 184 167 285 191 162 160 161 181 136 174 188 193 184 186 124 242 188 148 169 218 157 227 128 102 142 183 41 306 116 266 117 130 114 103 108 105 97
222 218 215 216 206 202 185 174 159 72 242 192 146 170 141 183 166 133 160 172 146 150 176 249 342 167 200 100 168 115 38 32 54 118 284 223 170 274 191 186 147 147 130 118 107
220 215 215 216 207 194 181 156 138 215 206 189 185 162 187 173 183 170 164 173 163 136 210 215 212 222 159 115 41 95 70 308 337 356 231 128 130 249 322 166 156 151 141 130 117
220 218 221 218 201 191 176 148 210 200 205 146 140 131 183 160 204 181 132 203 239 126 122 174 292 173 178 188 184 169 160 161 222 225 279 322 244 290 9 91 138 144 139 137 127
219 220 211 192 188 186 168 202 201 194 188 149 94 145 218 221 155 149 191 197 209 173 176 167 266 129 181 150 136 179 173 161 112 9 270 237 336 185 86 81 132 147 154 151 148
220 188 186 187 191 179 182 211 211 206 144 140 169 160 180 210 165 178 184 198 204 192 174 203 96 223 173 110 47 150 161 80 29 179 251 285 260 216 194 185 184 173 175 172 175
186 161 172 167 173 175 199 213 240 193 139 172 189 141 194 185 190 196 204 237 164 125 129 142 127 224 122 198 181 149 198 113 149 163 182 240 257 254 177 187 187 193 195 195 201
153 133 170 167 116 168 209 178 215 193 186 199 156 164 178 177 185 217 206 207 176 155 160 195 147 168 206 274 324 193 199 172 203 218 234 186 257 10 178 166 179 195 209 214 219
143 118 177 177 180 191 195 195 226 188 183 184 193 188 173 170 200 209 199 70 171 168 167 179 224 45 342 344 16 186 205 131 86 60 212 215 249 350 139 153 189 223 230 227 226
148 132 198 223 177 183 169 193 204 215 194 161 174 144 142 186 207 201 152 117 18 134 142 143 160 176 211 177 139 189 167 136 131 159 205 233 281 210 212 205 226 255 264 251 224
158 194 179 187 200 154 171 181 206 196 218 191 211 198 164 189 167 194 141 120 25 128 69 135 197 164 144 133 141 221 238 160 198 217 221 266 245 264 269 211 248 261 248 225 209
159 145 180 190 182 183 173 204 197 183 163 207 202 182 180 187 187 187 138 173 183 154 126 10 243 80 307 231 211 259 263 237 235 254 257 255 266 273 286 255 195 211 209 204 208
232 161 202 177 164 180 206 197 191 154 205 193 198 138 191 185 138 111 125 126 152 153 169 156 137 105 256 64 63 290 222 229 240 225 224 233 244 241 255 235 239 225 210 197 198